[[{"header":{"parameterUnit":"m.s-1","parameterCategory":1,"la1":30.2991,"la2":30.254,"lo1":-89.0895,"lo2":-89.0444,"dy":0.0017,"dx":0.0017,"nx":28,"ny":28,"refTime":"2025-06-16T21:00:00:Z","depth":0,"parameterNumber":2,"parameterNumberName":"U-component_of_WINDS"},"data":[0,0,0,0,0,0,0,0,0,0,0,0,0,0,0,0,0,0,0,0,0,0,0,0,0,0,0,0,0,0,0,0,0,0,0,0,0,0,0,0,0,0,0,0,0,0,0,0,0,0,0,0,0,0,0,0,0,0,1.8183,1.8184,0,1.8301,1.8302,1.8304,1.8382,1.8383,1.8383,1.8384,1.8508,1.8511,1.8513,0,0,0,0,0,0,0,0,0,0,0,0,0,1.8029,1.8032,1.8183,1.8184,1.8186,1.8301,1.8303,1.8304,1.8382,1.8383,1.8383,1.8384,1.8507,1.851,1.8514,0,0,0,0,0,0,0,0,0,0,0,0,0,1.8117,1.8032,1.8183,1.8238,1.8245,1.8301,1.8303,1.8305,1.8382,1.8383,1.8384,1.8384,1.8506,1.851,1.8514,1.8525,0,0,1.8527,1.8529,0,0,0,0,0,0,0,0,1.8112,1.8122,1.8229,1.8235,1.8242,1.8328,1.8294,1.8378,1.8382,1.833,1.8384,1.8385,1.8447,1.8456,1.8477,1.853,1.8536,1.8527,1.853,1.8532,1.8533,0,0,0,0,0,0,0,1.8105,1.8118,1.823,1.823,1.8238,1.8259,1.8272,1.831,1.8383,1.8335,1.834,1.8353,1.8451,1.8473,1.8481,1.8538,1.8527,1.8531,1.8534,1.8535,1.8608,1.8607,0,0,0,0,0,0,1.809,1.8112,1.8226,1.8233,1.8177,1.8261,1.8276,1.8299,1.8383,1.8396,1.8352,1.8356,1.8465,1.8476,1.8485,1.8504,1.8532,1.8536,1.8538,1.8608,1.8608,1.8607,0,0,0,0,0,0,1.8086,1.8099,1.8221,1.8174,1.8191,1.8263,1.8289,1.8301,1.8323,1.8396,1.841,1.8361,1.8466,1.8479,1.8514,1.8509,1.8538,1.8541,1.8609,1.8608,1.8607,1.8541,0,0,0,0,0,0,1.8082,1.8098,1.8101,1.8174,1.8194,1.8247,1.8288,1.8303,1.833,1.8336,1.8408,1.8421,1.8468,1.8508,1.8519,1.8516,1.8545,1.861,1.8609,1.8608,1.8544,1.8538,1.8532,0,0,0,0,0,1.8076,1.8078,1.8101,1.8114,1.8199,1.8246,1.8258,1.8311,1.8329,1.8334,1.8381,1.8418,1.8508,1.8511,1.8524,1.8522,1.861,1.8609,1.8608,1.8546,1.8539,1.8532,0,0,0,0,0,0,1.8004,1.8088,1.8115,1.814,1.8185,1.8259,1.8267,1.8302,1.8344,1.8348,1.8414,1.8429,1.8458,1.8494,1.8495,1.8538,1.8564,1.8565,1.8513,1.8506,1.8501,1.8491,1.8548,0,0,0,0,0,1.7991,1.802,1.8094,1.8109,1.813,1.8195,1.8217,1.8255,1.8305,1.8324,1.8374,1.8422,1.8462,1.8486,1.8526,1.855,1.8567,1.8555,1.8549,1.8544,1.8544,1.8561,1.8556,1.8602,1.8602,1.8602,0,0,1.7964,1.8014,1.8029,1.8096,1.8135,1.8166,1.821,1.8241,1.8265,1.8329,1.8365,1.8404,1.8462,1.8491,1.8507,1.8522,1.8536,1.8543,1.8538,1.8541,1.8559,1.8554,1.855,1.8601,1.8602,1.8602,0,0,1.7931,1.7972,1.7989,1.8028,1.8087,1.813,1.8134,1.8204,1.8232,1.8269,1.8318,1.8349,1.8415,1.8454,1.8483,1.8467,1.8503,1.8479,1.8449,1.8464,1.8461,1.8458,1.8453,1.845,1.8479,1.8479,1.8479,0,1.7891,1.7938,1.7994,1.8022,1.8051,1.811,1.813,1.8165,1.8234,1.8254,1.827,1.8355,1.8398,1.8438,1.8434,1.8455,1.8463,1.847,1.8456,1.8454,1.8452,1.8448,1.8446,1.8475,1.8476,1.8476,1.8476,0,1.7886,1.7918,1.7926,1.799,1.802,1.8043,1.8105,1.8129,1.8164,1.8206,1.8244,1.8298,1.8351,1.8364,1.8399,1.8409,1.8417,1.8444,1.8471,1.8443,1.8441,1.844,1.847,1.8472,1.8473,1.8474,0,0,1.781,1.7906,1.7908,1.7938,1.8009,1.8035,1.8063,1.8113,1.8133,1.8179,1.8204,1.826,1.8285,1.8318,1.8358,1.8372,1.8356,1.8397,1.84,1.8388,1.8373,1.8351,1.8348,1.8381,1.8381,1.8381,1.8368,0,1.7787,1.7837,1.789,1.7922,1.7953,1.8011,1.8035,1.8082,1.8122,1.8156,1.8201,1.8239,1.827,1.829,1.8306,1.8355,1.8354,1.8357,1.8406,1.8407,1.8389,1.8347,1.8325,1.8309,1.8367,1.8367,1.8367,0,1.7768,1.7811,1.7845,1.7914,1.7929,1.7949,1.8001,1.8032,1.8087,1.8115,1.8152,1.8195,1.8229,1.8253,1.8301,1.8301,1.8325,1.8352,1.8353,1.8359,1.8384,1.8352,1.8306,1.8303,1.8366,1.8366,1.8366,0,1.7708,1.7775,1.7805,1.783,1.791,1.7923,1.7958,1.8013,1.8041,1.8087,1.8106,1.8155,1.8182,1.822,1.8276,1.8288,1.8317,1.8346,1.8343,1.8341,1.8346,1.8345,1.8302,1.8361,1.8361,1.8361,1.8361,0,1.7678,1.7697,1.778,1.7798,1.7822,1.7883,1.7905,1.7945,1.7995,1.8023,1.8077,1.8103,1.8175,1.821,1.8254,1.8287,1.8299,1.8324,1.8335,1.8319,1.8316,1.8335,1.8337,1.8361,1.8361,1.8361,1.8361,0,1.7615,1.7671,1.7708,1.7781,1.78,1.7814,1.7878,1.7899,1.7943,1.7978,1.799,1.806,1.8104,1.8164,1.8226,1.8256,1.8283,1.8302,1.8264,1.8271,1.8264,1.8264,1.8232,1.8231,1.829,1.829,1.8289,0,1.7592,1.7608,1.7683,1.7705,1.7737,1.7773,1.7801,1.7863,1.7891,1.7955,1.7969,1.8017,1.8058,1.8126,1.8183,1.8232,1.8252,1.8237,1.8259,1.8242,1.8252,1.825,1.8252,1.8232,1.8231,1.823,1.8229,0,1.7544,1.7571,1.7609,1.7657,1.769,1.7731,1.7775,1.7791,1.7862,1.7891,1.7936,1.7968,1.8033,1.808,1.8136,1.8174,1.8214,1.8222,1.8224,1.8207,1.8184,1.8196,1.8249,1.8222,1.8223,1.8223,1.8224,1.8224,1.7501,1.7518,1.7573,1.7614,1.7654,1.7694,1.7717,1.7765,1.7803,1.7859,1.7894,1.7938,1.7995,1.8074,1.811,1.8146,1.8162,1.8165,1.8165,1.8165,1.8159,1.8179,1.8157,1.8157,1.8158,1.8158,1.8158,0,1.7456,1.7494,1.7532,1.7591,1.7624,1.7658,1.7709,1.7735,1.7772,1.7821,1.7861,1.7914,1.796,1.8021,1.8073,1.809,1.811,1.8101,1.8101,1.8109,1.8142,1.8135,1.8085,1.8085,1.8085,1.8085,1.8085,1.8085,1.7436,1.7467,1.7501,1.7553,1.7593,1.7635,1.7661,1.7699,1.7739,1.7795,1.7833,1.7873,1.7927,1.7983,1.8028,1.8045,1.8061,1.8047,1.807,1.81,1.8106,1.8113,1.8107,1.805,1.805,1.8033,1.8033,1.8033]},{"header":{"parameterUnit":"m.s-1","parameterCategory":1,"la1":30.2991,"la2":30.254,"lo1":-89.0895,"lo2":-89.0444,"dy":0.0017,"dx":0.0017,"nx":28,"ny":28,"refTime":"2025-06-16T21:00:00:Z","depth":0,"parameterNumber":3,"parameterNumberName":"V-component_of_WINDS"},"data":[0,0,0,0,0,0,0,0,0,0,0,0,0,0,0,0,0,0,0,0,0,0,0,0,0,0,0,0,0,0,0,0,0,0,0,0,0,0,0,0,0,0,0,0,0,0,0,0,0,0,0,0,0,0,0,0,0,0,3.091,3.0912,0,3.1147,3.115,3.1152,3.1269,3.1269,3.1269,3.1269,3.151,3.1516,3.1522,0,0,0,0,0,0,0,0,0,0,0,0,0,3.0554,3.056,3.0909,3.0912,3.0915,3.1147,3.115,3.1153,3.1269,3.1269,3.1269,3.1269,3.1507,3.1515,3.1523,0,0,0,0,0,0,0,0,0,0,0,0,0,3.0741,3.0562,3.0909,3.1001,3.1012,3.1146,3.115,3.1154,3.1269,3.1269,3.1269,3.1269,3.1505,3.1514,3.1524,3.1583,0,0,3.1553,3.1557,0,0,0,0,0,0,0,0,3.073,3.0754,3.0985,3.0995,3.1007,3.1179,3.1113,3.1298,3.1269,3.1171,3.1269,3.1269,3.1399,3.1418,3.1462,3.1594,3.1605,3.1554,3.156,3.1564,3.1567,0,0,0,0,0,0,0,3.0717,3.0745,3.1003,3.0988,3.1002,3.103,3.1057,3.1148,3.1282,3.118,3.1189,3.1216,3.1405,3.1452,3.1468,3.1608,3.1554,3.1562,3.1568,3.1572,3.1802,3.1802,0,0,0,0,0,0,3.069,3.0733,3.0996,3.1011,3.0866,3.1036,3.1066,3.1124,3.1282,3.1306,3.1215,3.122,3.1436,3.1457,3.1477,3.1559,3.1564,3.1573,3.1578,3.1802,3.1802,3.1802,0,0,0,0,0,0,3.0682,3.0712,3.0986,3.0874,3.0912,3.1042,3.1106,3.1128,3.1176,3.1309,3.1333,3.1239,3.1437,3.1464,3.1556,3.1568,3.1577,3.1586,3.1801,3.1802,3.1802,3.172,0,0,0,0,0,0,3.0671,3.0709,3.0733,3.0874,3.0917,3.1062,3.1107,3.1133,3.1192,3.1201,3.1337,3.136,3.1439,3.1541,3.1566,3.1582,3.1593,3.1801,3.1801,3.1802,3.1722,3.1718,3.1714,0,0,0,0,0,3.0658,3.07,3.0734,3.0765,3.0951,3.1062,3.1087,3.1178,3.1193,3.1218,3.1304,3.1355,3.1563,3.155,3.1579,3.1597,3.18,3.1801,3.1802,3.1724,3.1719,3.1714,0,0,0,0,0,0,3.0556,3.072,3.076,3.0849,3.0941,3.1082,3.1117,3.1169,3.1258,3.1262,3.1371,3.14,3.1483,3.1549,3.1532,3.1663,3.1687,3.1693,3.1618,3.1613,3.1609,3.1592,3.1601,0,0,0,0,0,3.0544,3.0622,3.0761,3.0826,3.087,3.0985,3.1037,3.1099,3.1199,3.1238,3.1331,3.1424,3.1511,3.1565,3.1652,3.1732,3.1764,3.1759,3.1754,3.175,3.1755,3.1803,3.1803,3.1805,3.1805,3.1805,0,0,3.052,3.0619,3.0662,3.0808,3.0887,3.0964,3.1017,3.1097,3.1156,3.125,3.1344,3.1414,3.1526,3.1612,3.1655,3.167,3.1761,3.1751,3.1747,3.1754,3.1803,3.1803,3.1803,3.1806,3.1805,3.1805,0,0,3.0516,3.0599,3.0663,3.074,3.0859,3.0936,3.095,3.1084,3.1135,3.1231,3.1303,3.1374,3.152,3.1597,3.1656,3.168,3.1731,3.1705,3.1683,3.1728,3.1728,3.1728,3.1738,3.174,3.1709,3.1709,3.1708,0,3.0471,3.0592,3.0688,3.0765,3.0827,3.0916,3.0982,3.1052,3.1192,3.1233,3.1248,3.1434,3.1515,3.1621,3.1627,3.1671,3.1692,3.1691,3.172,3.1722,3.1723,3.1734,3.1737,3.1705,3.1705,3.1706,3.1706,0,3.0531,3.0614,3.0651,3.0786,3.0852,3.0921,3.1028,3.1083,3.1138,3.1213,3.1309,3.1409,3.1519,3.1548,3.1603,3.1662,3.1668,3.17,3.1725,3.1718,3.1729,3.1734,3.1699,3.1701,3.1702,3.1703,0,0,3.0472,3.0658,3.067,3.0733,3.087,3.0936,3.1009,3.1117,3.1162,3.1255,3.132,3.1441,3.1472,3.1538,3.1602,3.1641,3.1655,3.1669,3.1674,3.1664,3.1727,3.1703,3.1706,3.1689,3.169,3.1691,3.1718,0,3.0488,3.0626,3.0714,3.0816,3.0894,3.0979,3.1044,3.1134,3.1205,3.128,3.1358,3.1444,3.1477,3.1518,3.156,3.1644,3.167,3.1643,3.1751,3.1753,3.1722,3.1713,3.1688,3.1708,3.1723,3.1724,3.1725,0,3.0526,3.0618,3.0728,3.0858,3.0893,3.095,3.1056,3.1127,3.1231,3.1279,3.1352,3.1418,3.1498,3.1515,3.1628,3.1608,3.1657,3.1705,3.1708,3.1722,3.174,3.1728,3.1717,3.172,3.1733,3.1732,3.1732,0,3.0473,3.0624,3.071,3.0761,3.0913,3.0951,3.1016,3.112,3.1179,3.1271,3.131,3.1409,3.1464,3.1539,3.1628,3.1633,3.1732,3.1757,3.1775,3.1773,3.1794,3.1791,3.1791,3.1822,3.1822,3.1822,3.1822,0,3.0483,3.0547,3.0689,3.0741,3.0816,3.0916,3.0986,3.1058,3.115,3.1218,3.1297,3.1358,3.1473,3.1548,3.1618,3.1701,3.1725,3.1766,3.1785,3.1761,3.1755,3.1795,3.1796,3.1823,3.1822,3.1822,3.1822,0,3.0437,3.0534,3.0634,3.077,3.0805,3.0854,3.097,3.1024,3.1099,3.1184,3.1209,3.1326,3.1419,3.1516,3.1641,3.1689,3.1769,3.1794,3.1735,3.1745,3.1759,3.1756,3.1786,3.1795,3.1816,3.1816,3.1816,0,3.0438,3.049,3.0631,3.0683,3.0746,3.0828,3.0889,3.0989,3.1049,3.1171,3.121,3.1309,3.1394,3.1538,3.1634,3.173,3.1759,3.1762,3.1774,3.1748,3.176,3.1757,3.1763,3.1758,3.1758,3.1757,3.1757,0,3.043,3.0475,3.056,3.0662,3.0733,3.0818,3.0905,3.0943,3.106,3.1123,3.1219,3.1285,3.1414,3.1511,3.1619,3.1685,3.174,3.1752,3.1762,3.1738,3.1702,3.1723,3.1725,3.1751,3.1752,3.1752,3.1752,3.1753,3.0409,3.0459,3.0566,3.0659,3.0735,3.0815,3.0873,3.0955,3.1038,3.1151,3.1204,3.1301,3.1404,3.1554,3.1619,3.1696,3.1711,3.1725,3.1729,3.1731,3.1725,3.1688,3.1715,3.1716,3.1716,3.1716,3.1716,0,3.0405,3.0479,3.0563,3.0684,3.0756,3.0802,3.0901,3.0958,3.1043,3.1134,3.1216,3.1327,3.1421,3.1524,3.1625,3.1666,3.1694,3.1689,3.1688,3.1703,3.1705,3.1687,3.1665,3.1665,3.1665,3.1665,3.1665,3.1665,3.0413,3.05,3.0558,3.0684,3.0757,3.0853,3.0906,3.098,3.1054,3.1174,3.1254,3.132,3.1416,3.1524,3.1613,3.1641,3.1675,3.1663,3.1698,3.1698,3.1702,3.1706,3.169,3.1669,3.1669,3.169,3.169,3.169]}]]